[[{"header":{"parameterUnit":"m.s-1","parameterCategory":1,"la1":30.2991,"la2":30.254,"lo1":-89.0895,"lo2":-89.0444,"dy":0.0017,"dx":0.0017,"nx":28,"ny":28,"refTime":"2024-06-07T21:00:00:Z","depth":0,"parameterNumber":2,"parameterNumberName":"U-component_of_WINDS"},"data":[0,0,0,0,0,0,0,0,0,0,0,0,0,0,0,0,0,0,0,0,0,0,0,0,0,0,0,0,0,0,0,0,0,0,0,0,0,0,0,0,0,0,0,0,0,0,0,0,0,0,0,0,0,0,0,0,0,0,-0.4021,-0.4021,0,-0.3945,-0.3944,-0.3944,-0.3905,-0.3905,-0.3905,-0.3905,-0.3826,-0.3824,-0.3822,0,0,0,0,0,0,0,0,0,0,0,0,0,-0.4134,-0.4132,-0.4022,-0.4021,-0.402,-0.3945,-0.3944,-0.3943,-0.3905,-0.3905,-0.3905,-0.3905,-0.3827,-0.3825,-0.3822,0,0,0,0,0,0,0,0,0,0,0,0,0,-0.4074,-0.4131,-0.4022,-0.3992,-0.3988,-0.3946,-0.3944,-0.3943,-0.3905,-0.3905,-0.3905,-0.3905,-0.3828,-0.3825,-0.3822,-0.3803,0,0,-0.3812,-0.3811,0,0,0,0,0,0,0,0,-0.4077,-0.407,-0.3997,-0.3994,-0.399,-0.3935,-0.3955,-0.3896,-0.3905,-0.3937,-0.3905,-0.3905,-0.3862,-0.3856,-0.3842,-0.38,-0.3796,-0.3812,-0.381,-0.3809,-0.3808,0,0,0,0,0,0,0,-0.4082,-0.4073,-0.3991,-0.3996,-0.3991,-0.3982,-0.3973,-0.3944,-0.3901,-0.3934,-0.3931,-0.3922,-0.386,-0.3845,-0.384,-0.3795,-0.3812,-0.3809,-0.3807,-0.3806,-0.3734,-0.3733,0,0,0,0,0,0,-0.4091,-0.4077,-0.3994,-0.3989,-0.4034,-0.398,-0.397,-0.3952,-0.3901,-0.3893,-0.3922,-0.3921,-0.3851,-0.3844,-0.3837,-0.3812,-0.3809,-0.3806,-0.3804,-0.3734,-0.3734,-0.3733,0,0,0,0,0,0,-0.4093,-0.4084,-0.3997,-0.4032,-0.402,-0.3978,-0.3958,-0.3951,-0.3936,-0.3892,-0.3884,-0.3915,-0.385,-0.3842,-0.3812,-0.3809,-0.3805,-0.3802,-0.3734,-0.3734,-0.3734,-0.3762,0,0,0,0,0,0,-0.4097,-0.4085,-0.4077,-0.4032,-0.4019,-0.3973,-0.3958,-0.3949,-0.3931,-0.3928,-0.3883,-0.3876,-0.385,-0.3817,-0.3809,-0.3804,-0.3799,-0.3734,-0.3734,-0.3734,-0.3761,-0.3763,-0.3764,0,0,0,0,0,-0.4101,-0.4088,-0.4077,-0.4067,-0.4008,-0.3973,-0.3965,-0.3936,-0.393,-0.3923,-0.3895,-0.3877,-0.3811,-0.3814,-0.3805,-0.38,-0.3734,-0.3734,-0.3734,-0.376,-0.3763,-0.3764,0,0,0,0,0,0,-0.4134,-0.4082,-0.4069,-0.4041,-0.4012,-0.3967,-0.3956,-0.3939,-0.391,-0.3909,-0.3873,-0.3863,-0.3837,-0.3815,-0.382,-0.3779,-0.377,-0.3768,-0.3794,-0.3796,-0.3797,-0.3803,-0.3797,0,0,0,0,0,-0.4138,-0.4114,-0.407,-0.405,-0.4036,-0.3999,-0.3982,-0.3962,-0.393,-0.3917,-0.3887,-0.3856,-0.3829,-0.3811,-0.3783,-0.3758,-0.3748,-0.375,-0.3751,-0.3753,-0.3751,-0.3736,-0.3737,-0.3733,-0.3733,-0.3733,0,0,-0.4147,-0.4115,-0.4102,-0.4056,-0.403,-0.4006,-0.3988,-0.3963,-0.3945,-0.3913,-0.3883,-0.3861,-0.3824,-0.3797,-0.3783,-0.3778,-0.375,-0.3753,-0.3754,-0.3752,-0.3736,-0.3737,-0.3737,-0.3733,-0.3733,-0.3733,0,0,-0.4149,-0.4123,-0.4104,-0.4079,-0.4041,-0.4016,-0.4012,-0.3969,-0.3953,-0.3922,-0.3898,-0.3876,-0.3828,-0.3803,-0.3785,-0.3778,-0.3761,-0.377,-0.3778,-0.3764,-0.3765,-0.3765,-0.3762,-0.3762,-0.3769,-0.3769,-0.3769,0,-0.4165,-0.4127,-0.4096,-0.4072,-0.4053,-0.4023,-0.4003,-0.3981,-0.3936,-0.3923,-0.3917,-0.3858,-0.3831,-0.3797,-0.3796,-0.3782,-0.3775,-0.3775,-0.3767,-0.3767,-0.3767,-0.3764,-0.3763,-0.377,-0.377,-0.377,-0.377,0,-0.4147,-0.4122,-0.4111,-0.4068,-0.4047,-0.4026,-0.3991,-0.3974,-0.3955,-0.3931,-0.3901,-0.3868,-0.3833,-0.3824,-0.3805,-0.3787,-0.3785,-0.3774,-0.3765,-0.3769,-0.3766,-0.3764,-0.3772,-0.3772,-0.3771,-0.3771,0,0,-0.4169,-0.411,-0.4106,-0.4086,-0.4043,-0.4022,-0.3999,-0.3965,-0.3951,-0.3921,-0.39,-0.3861,-0.3851,-0.3829,-0.3808,-0.3796,-0.3793,-0.3786,-0.3785,-0.3788,-0.3771,-0.378,-0.3779,-0.3781,-0.3781,-0.3781,-0.3774,0,-0.4165,-0.4123,-0.4094,-0.4063,-0.4039,-0.4011,-0.3991,-0.3962,-0.3939,-0.3915,-0.3889,-0.3862,-0.385,-0.3837,-0.3824,-0.3796,-0.3789,-0.3796,-0.3762,-0.3761,-0.3772,-0.3777,-0.3786,-0.3781,-0.3773,-0.3772,-0.3772,0,-0.4156,-0.4127,-0.4093,-0.4052,-0.4041,-0.4023,-0.399,-0.3967,-0.3934,-0.3918,-0.3894,-0.3873,-0.3847,-0.384,-0.3805,-0.381,-0.3795,-0.3779,-0.3778,-0.3773,-0.3767,-0.3773,-0.3779,-0.3779,-0.377,-0.377,-0.377,0,-0.4175,-0.4127,-0.4101,-0.4085,-0.4036,-0.4025,-0.4004,-0.397,-0.3952,-0.3922,-0.391,-0.3878,-0.386,-0.3836,-0.3806,-0.3804,-0.3774,-0.3764,-0.3759,-0.376,-0.3754,-0.3755,-0.3758,-0.3744,-0.3744,-0.3744,-0.3744,0,-0.4174,-0.4154,-0.4109,-0.4093,-0.407,-0.4037,-0.4016,-0.3993,-0.3963,-0.3942,-0.3916,-0.3896,-0.3858,-0.3834,-0.3811,-0.3785,-0.3777,-0.3763,-0.3757,-0.3765,-0.3767,-0.3755,-0.3754,-0.3744,-0.3744,-0.3744,-0.3744,0,-0.4191,-0.416,-0.4129,-0.4086,-0.4075,-0.406,-0.4022,-0.4006,-0.3981,-0.3955,-0.3947,-0.3908,-0.3879,-0.3847,-0.3806,-0.3791,-0.3766,-0.3757,-0.3777,-0.3774,-0.3771,-0.3771,-0.3765,-0.3763,-0.3752,-0.3752,-0.3752,0,-0.4193,-0.4177,-0.4132,-0.4116,-0.4096,-0.407,-0.4051,-0.4018,-0.3999,-0.396,-0.3948,-0.3917,-0.389,-0.3843,-0.3812,-0.3781,-0.3771,-0.3771,-0.3766,-0.3775,-0.3771,-0.3772,-0.3771,-0.3773,-0.3773,-0.3773,-0.3774,0,-0.4199,-0.4184,-0.4157,-0.4125,-0.4103,-0.4076,-0.4049,-0.4037,-0.3999,-0.3979,-0.3948,-0.3927,-0.3886,-0.3855,-0.382,-0.3798,-0.378,-0.3776,-0.3773,-0.3781,-0.3793,-0.3786,-0.3781,-0.3776,-0.3776,-0.3775,-0.3775,-0.3775,-0.4208,-0.4193,-0.4158,-0.413,-0.4105,-0.408,-0.4062,-0.4036,-0.401,-0.3974,-0.3956,-0.3925,-0.3892,-0.3843,-0.3822,-0.3798,-0.3792,-0.3788,-0.3787,-0.3786,-0.3789,-0.3797,-0.3791,-0.3791,-0.3791,-0.3791,-0.3791,0,-0.4212,-0.4189,-0.4163,-0.4125,-0.4102,-0.4087,-0.4055,-0.4037,-0.4011,-0.3981,-0.3956,-0.392,-0.389,-0.3856,-0.3824,-0.3811,-0.3802,-0.3804,-0.3804,-0.3799,-0.3796,-0.3801,-0.3812,-0.3812,-0.3812,-0.3812,-0.3812,-0.3812,-0.4212,-0.4185,-0.4167,-0.4128,-0.4105,-0.4075,-0.4058,-0.4034,-0.4011,-0.3973,-0.3948,-0.3926,-0.3895,-0.386,-0.3831,-0.3822,-0.3811,-0.3816,-0.3804,-0.3801,-0.38,-0.3798,-0.3803,-0.3814,-0.3814,-0.381,-0.381,-0.381]},{"header":{"parameterUnit":"m.s-1","parameterCategory":1,"la1":30.2991,"la2":30.254,"lo1":-89.0895,"lo2":-89.0444,"dy":0.0017,"dx":0.0017,"nx":28,"ny":28,"refTime":"2024-06-07T21:00:00:Z","depth":0,"parameterNumber":3,"parameterNumberName":"V-component_of_WINDS"},"data":[0,0,0,0,0,0,0,0,0,0,0,0,0,0,0,0,0,0,0,0,0,0,0,0,0,0,0,0,0,0,0,0,0,0,0,0,0,0,0,0,0,0,0,0,0,0,0,0,0,0,0,0,0,0,0,0,0,0,4.0816,4.0816,0,4.0843,4.0843,4.0843,4.0787,4.0785,4.0784,4.0782,4.0805,4.0808,4.081,0,0,0,0,0,0,0,0,0,0,0,0,0,4.0712,4.0714,4.0816,4.0816,4.0816,4.0842,4.0843,4.0843,4.0787,4.0785,4.0783,4.0781,4.0805,4.0807,4.081,0,0,0,0,0,0,0,0,0,0,0,0,0,4.075,4.0715,4.0815,4.0792,4.079,4.0842,4.0843,4.0843,4.0788,4.0785,4.0783,4.078,4.0804,4.0807,4.0811,4.0886,0,0,4.0821,4.0823,0,0,0,0,0,0,0,0,4.0747,4.0753,4.0795,4.0793,4.0791,4.0809,4.0815,4.0858,4.0789,4.0789,4.0782,4.0779,4.0809,4.0811,4.0822,4.0887,4.0888,4.0821,4.0824,4.0825,4.0826,0,0,0,0,0,0,0,4.0745,4.0752,4.0826,4.0796,4.0793,4.0778,4.0781,4.0823,4.0813,4.0788,4.0784,4.0789,4.0807,4.0819,4.0822,4.0889,4.0821,4.0824,4.0827,4.0828,4.1016,4.1019,0,0,0,0,0,0,4.0746,4.075,4.0825,4.0827,4.0763,4.0782,4.0785,4.0806,4.0813,4.0811,4.0791,4.0786,4.0814,4.0818,4.0823,4.0911,4.0825,4.0828,4.083,4.1013,4.1017,4.102,0,0,0,0,0,0,4.0744,4.0753,4.0824,4.0787,4.0795,4.0787,4.0811,4.0808,4.082,4.0815,4.0812,4.0805,4.0812,4.0818,4.0871,4.0911,4.083,4.0833,4.101,4.1015,4.1019,4.1089,0,0,0,0,0,0,4.0741,4.0753,4.0782,4.0789,4.0798,4.0873,4.0813,4.081,4.0826,4.082,4.0827,4.0826,4.0811,4.0866,4.0875,4.0915,4.0836,4.1006,4.1012,4.1017,4.1083,4.1095,4.1106,0,0,0,0,0,4.0738,4.08,4.0784,4.0793,4.0835,4.0875,4.088,4.0863,4.083,4.0859,4.0856,4.0826,4.0906,4.0872,4.0881,4.0923,4.1004,4.101,4.1017,4.1078,4.1093,4.1106,0,0,0,0,0,0,4.0797,4.0801,4.0783,4.085,4.0863,4.0866,4.0902,4.0879,4.0901,4.0894,4.087,4.0872,4.093,4.0931,4.0894,4.0996,4.0949,4.0958,4.0992,4.1007,4.1018,4.1015,4.0839,0,0,0,0,0,4.0819,4.0853,4.0853,4.0912,4.092,4.091,4.0927,4.0913,4.0925,4.093,4.093,4.0942,4.097,4.0988,4.1014,4.1084,4.1084,4.1117,4.1128,4.1137,4.1145,4.1181,4.1195,4.1042,4.1042,4.1042,0,0,4.0862,4.0868,4.0891,4.0924,4.0933,4.0968,4.0915,4.0954,4.0979,4.0935,4.0985,4.0986,4.0998,4.1059,4.1086,4.1063,4.1187,4.1146,4.1153,4.1155,4.1189,4.1204,4.1216,4.1046,4.1045,4.1045,0,0,4.0959,4.0968,4.1018,4.1028,4.1042,4.1035,4.1047,4.1054,4.1053,4.1104,4.1071,4.11,4.1149,4.1158,4.1169,4.1271,4.1244,4.128,4.1339,4.1374,4.1386,4.1397,4.1432,4.1445,4.1287,4.1288,4.1288,0,4.1011,4.1063,4.1045,4.1087,4.1102,4.1066,4.1115,4.1125,4.1147,4.1157,4.1131,4.1191,4.1197,4.1259,4.1284,4.1295,4.1307,4.1278,4.1386,4.1397,4.1406,4.1439,4.1453,4.1292,4.1291,4.1291,4.1291,0,4.1126,4.1163,4.1201,4.1224,4.1243,4.1289,4.1276,4.1298,4.1282,4.1278,4.1329,4.1335,4.136,4.1374,4.1359,4.1435,4.142,4.1391,4.1342,4.1425,4.1456,4.1469,4.1298,4.1296,4.1295,4.1294,0,0,4.1259,4.1273,4.1287,4.1297,4.1311,4.1338,4.1381,4.1408,4.1426,4.1442,4.1477,4.152,4.1493,4.1505,4.1491,4.1522,4.1601,4.1489,4.1488,4.1508,4.1684,4.1705,4.172,4.1584,4.1586,4.1588,4.1683,0,4.1355,4.1431,4.1416,4.149,4.1523,4.1489,4.1527,4.1538,4.1536,4.1562,4.1558,4.1589,4.1551,4.1559,4.1589,4.1585,4.1636,4.1578,4.1614,4.1616,4.1611,4.1737,4.1759,4.1848,4.1695,4.1697,4.1698,0,4.1476,4.1498,4.1575,4.1583,4.1597,4.1631,4.1654,4.168,4.1692,4.1688,4.1703,4.1682,4.1724,4.1677,4.1733,4.1695,4.1709,4.1709,4.1712,4.1714,4.1661,4.174,4.1876,4.1889,4.1717,4.1716,4.1714,0,4.1564,4.1613,4.1666,4.1675,4.1687,4.1711,4.1717,4.1726,4.1743,4.1763,4.1773,4.1798,4.181,4.1829,4.1815,4.1782,4.1873,4.1825,4.1869,4.187,4.1889,4.1888,4.2028,4.1901,4.19,4.19,4.19,0,4.1671,4.1719,4.1706,4.1738,4.179,4.1773,4.1825,4.1827,4.1836,4.1867,4.1839,4.1868,4.1848,4.1876,4.1865,4.1913,4.1919,4.1916,4.1912,4.1917,4.1918,4.1925,4.1918,4.1904,4.1903,4.1902,4.1901,0,4.1778,4.1771,4.1826,4.1833,4.1836,4.1874,4.1879,4.1908,4.1904,4.1943,4.1951,4.1944,4.1975,4.1963,4.1995,4.1988,4.2049,4.2038,4.2045,4.2042,4.2086,4.2082,4.2235,4.2254,4.2116,4.2117,4.2118,0,4.1846,4.1883,4.1894,4.1914,4.1922,4.1953,4.197,4.1955,4.1974,4.1991,4.2018,4.2046,4.2068,4.2119,4.2115,4.214,4.2128,4.218,4.2131,4.2136,4.2127,4.2125,4.2128,4.2189,4.2191,4.2192,4.2193,0,4.1968,4.1963,4.199,4.2016,4.2038,4.2057,4.2073,4.2091,4.2076,4.2098,4.213,4.2147,4.2181,4.2209,4.2231,4.2235,4.2212,4.2209,4.222,4.2226,4.2228,4.2226,4.207,4.2205,4.2204,4.2203,4.2203,4.2202,4.2056,4.2087,4.21,4.2131,4.2142,4.2159,4.2186,4.2186,4.2213,4.224,4.2229,4.2265,4.2276,4.2304,4.2311,4.2339,4.2318,4.2335,4.2339,4.2343,4.2348,4.2225,4.2343,4.2342,4.2342,4.2342,4.2341,0,4.2175,4.2182,4.2211,4.2236,4.226,4.2238,4.2255,4.2276,4.2309,4.2322,4.2344,4.2381,4.2408,4.2408,4.2433,4.2455,4.2445,4.2462,4.2459,4.2461,4.2365,4.2353,4.247,4.247,4.247,4.247,4.247,4.247,4.224,4.229,4.2287,4.2343,4.2349,4.2385,4.2397,4.2412,4.2422,4.2464,4.2487,4.2488,4.2495,4.252,4.2544,4.2543,4.2553,4.2575,4.2569,4.248,4.2467,4.2455,4.2443,4.2577,4.2577,4.2662,4.2663,4.2663]}]]